Nellis AFB, NV

2:18 PM PST on December 05, 2019 (GMT -0800)
Nellis Air Force Base

Weather History for KLSV - October, 2019

Change the Weather History Date:

Monday, October 28, 2019

  Actual Average Record
Temperature  
Mean Temperature 50 °F -  
Max Temperature 58 °F 71 °F 89 °F (2003)
Min Temperature 40 °F 48 °F 39 °F (1996)
Degree Days  
Heating Degree Days 15    
Moisture  
Dew Point -3 °F    
Average Humidity 12    
Maximum Humidity 20    
Minimum Humidity 6    
Precipitation  
Precipitation 0.00 in - - ()
Sea Level Pressure  
Sea Level Pressure 30.09 in    
Wind  
Wind Speed 13 mph (NNE)    
Max Wind Speed 24 mph    
Max Gust Speed 31 mph    
Visibility 10 miles    
Events      
Averages and records for this station are not official NWS values.
T = Trace of Precipitation, MM = Missing Value Source: NWS Daily Summary

Daily Weather History Graph

Daily Weather History Graph

Search for Another Location

Airport or City:

Astronomy

Oct. 28, 2019 Rise Set
Actual Time 6:58 AM PDT 5:48 PM PDT
Civil Twilight 6:32 AM PDT 6:14 PM PDT
Nautical Twilight 6:02 AM PDT 6:44 PM PDT
Astronomical Twilight 5:32 AM PDT 7:14 PM PDT
Moon 7:26 AM PDT (10/28) 6:36 PM PDT (10/28)
Length of Visible Light 11h 42m
Length of Day
10h 49m
New Moon, 1% of the Moon is Illuminated
Oct 28
New Moon
Nov 4
First Quarter
Nov 12
Full
Nov 19
Last Quarter
Nov 26
New

Hourly Weather History & Observations

Time (PDT) Temp. Windchill Dew Point Humidity Pressure Visibility Wind Dir Wind Speed Gust Speed Precip Events Conditions
12:58 AM 50.2 °F - 1.9 °F 14% 30.03 in 10.0 mi NNE 19.6 mph 28.8 mph N/A   Clear
1:58 AM 49.3 °F - 5.0 °F 16% 30.07 in 10.0 mi North 24.2 mph 31.1 mph N/A   Clear
2:58 AM 48.2 °F - 5.4 °F 17% 30.08 in 10.0 mi North 18.4 mph 31.1 mph N/A   Clear
3:58 AM 46.6 °F - 1.0 °F 15% 30.10 in 10.0 mi NNE 16.1 mph 27.6 mph N/A   Clear
4:58 AM 43.9 °F 37.2 °F 4.3 °F 20% 30.13 in 10.0 mi NNE 13.8 mph - N/A   Clear
5:58 AM 44.8 °F 39.0 °F 5.0 °F 20% 30.15 in 10.0 mi NNE 11.5 mph 20.7 mph N/A   Clear
6:58 AM 43.5 °F 37.1 °F 5.0 °F 20% 30.17 in 10.0 mi North 12.7 mph - N/A   Clear
7:58 AM 44.2 °F 39.7 °F 4.5 °F 19% 30.22 in 10.0 mi NNE 8.1 mph - N/A   Clear
8:58 AM 48.0 °F - 1.0 °F 14% 30.23 in 10.0 mi North 13.8 mph - N/A   Clear
9:58 AM 49.5 °F - 0.7 °F 13% 30.24 in 10.0 mi North 11.5 mph - N/A   Clear
10:48 AM 51.8 °F - 1.4 °F 13% 30.21 in 10.0 mi North 11.5 mph - N/A   Clear
10:58 AM 51.6 °F - 0.7 °F 12% 30.22 in 10.0 mi NW 6.9 mph - N/A   Clear
11:58 AM 53.4 °F - -1.8 °F 10% 30.17 in 10.0 mi NE 10.4 mph - N/A   Clear
12:15 PM 53.6 °F - -5.8 °F 9% 30.17 in 10.0 mi North 15.0 mph 21.9 mph N/A   Clear
12:58 PM 54.9 °F - -8.1 °F 7% 30.12 in 10.0 mi NNE 9.2 mph - N/A   Clear
1:58 PM 56.1 °F - -7.2 °F 7% 30.08 in 10.0 mi NNE 6.9 mph - N/A   Clear
2:58 PM 57.6 °F - -9.4 °F 6% 30.06 in 10.0 mi Calm Calm - N/A   Clear
3:58 PM 56.8 °F - -9.9 °F 6% 30.04 in 10.0 mi ENE 3.5 mph - N/A   Clear
4:58 PM 57.0 °F - -9.8 °F 6% 30.01 in 10.0 mi Calm Calm - N/A   Clear
5:58 PM 55.9 °F - -10.5 °F 6% 30.00 in 10.0 mi North - - N/A   Unknown
6:58 PM 52.0 °F - -10.3 °F 7% 29.99 in 10.0 mi Calm Calm - N/A   Partly Cloudy
7:58 PM 46.4 °F 45.2 °F -11.9 °F 8% 29.98 in 10.0 mi NE 3.5 mph - N/A   Clear
8:58 PM 47.7 °F - -11.4 °F 8% 29.96 in 10.0 mi North 4.6 mph - N/A   Clear
9:58 PM 45.5 °F 44.2 °F -8.0 °F 10% 29.96 in 10.0 mi NNW 3.5 mph - N/A   Clear
10:58 PM 44.2 °F 42.7 °F -5.3 °F 12% 29.94 in 10.0 mi NNE 3.5 mph - N/A   Clear
11:58 PM 40.8 °F 38.8 °F -6.3 °F 14% 29.93 in 10.0 mi NNE 3.5 mph - N/A   Clear